�N����,����,�~����,�C��,���x,�C��,����,���ϕ���,�ő�u�ԕ���,�ő厞����,���˗�,�I�_���x,�n�����x,�ő啗���N��,DTYPE
"17/03/14","00:10",0.0,8.4,83.6,1007.6,337.5,2.1,4.3,329.3,0.00,5.8,8.9,"00:03:22",1
"17/03/14","00:20",0.0,8.4,83.5,1007.4,316.7,1.5,2.8,330.1,0.00,5.8,9.1,"00:12:32",1
"17/03/14","00:30",0.0,8.3,83.5,1007.4,341.7,1.2,3.6,323.8,0.00,5.7,8.9,"00:28:58",1
"17/03/14","00:40",0.0,8.3,83.4,1007.4,323.4,2.7,4.2,337.4,0.00,5.7,9.0,"00:35:44",1
"17/03/14","00:50",0.0,8.1,83.5,1007.4,330.8,3.2,6.2,334.0,0.00,5.5,9.0,"00:40:48",1
"17/03/14","01:00",0.0,8.1,83.7,1007.8,329.3,2.2,3.6,338.9,0.00,5.6,8.9,"00:56:56",1
"17/03/14","01:10",0.0,8.0,83.4,1007.4,327.0,2.5,4.8,329.3,0.00,5.4,8.7,"01:00:24",1
"17/03/14","01:20",0.0,8.0,82.8,1007.6,305.4,2.5,4.9,311.7,0.00,5.3,8.9,"01:14:24",1
"17/03/14","01:30",0.0,8.0,82.8,1007.6,304.4,2.0,3.1,316.5,0.00,5.3,8.9,"01:29:28",1
"17/03/14","01:40",0.0,7.9,83.0,1007.4,319.6,2.1,4.2,335.9,0.00,5.2,8.7,"01:38:08",1
"17/03/14","01:50",0.0,7.8,82.9,1007.1,309.7,2.1,4.2,325.5,0.00,5.1,8.7,"01:41:44",1
"17/03/14","02:00",0.0,7.8,83.0,1007.1,305.2,2.0,3.5,306.4,0.00,5.1,8.8,"01:59:52",1
"17/03/14","02:10",0.0,7.8,82.7,1006.7,328.4,1.6,2.6,341.0,0.00,5.1,8.8,"02:03:20",1
"17/03/14","02:20",0.0,7.8,82.4,1006.7,315.8,2.6,5.2,329.4,0.00,5.0,8.9,"02:19:12",1
"17/03/14","02:30",0.0,7.8,81.8,1006.7,326.3,3.2,5.5,340.6,0.00,4.9,8.8,"02:22:00",1
"17/03/14","02:40",0.0,7.8,81.4,1006.7,328.3,3.2,6.6,340.6,0.00,4.9,8.7,"02:37:04",1
"17/03/14","02:50",0.0,7.7,81.4,1006.4,327.8,2.8,4.2,309.5,0.00,4.8,8.7,"02:42:56",1
"17/03/14","03:00",0.0,7.7,81.3,1006.7,315.3,2.5,5.1,326.3,0.00,4.7,8.6,"02:54:56",1
"17/03/14","03:10",0.0,7.6,80.9,1006.4,329.5,2.5,4.4,335.9,0.00,4.6,8.7,"03:09:12",1
"17/03/14","03:20",0.0,7.6,80.6,1006.7,332.9,2.7,4.4,335.5,0.00,4.5,8.6,"03:14:56",1
"17/03/14","03:30",0.0,7.6,80.6,1006.4,331.5,3.1,6.0,309.3,0.00,4.5,8.8,"03:21:12",1
"17/03/14","03:40",0.0,7.6,80.3,1006.9,335.9,3.1,4.5,323.6,0.00,4.5,8.5,"03:33:04",1
"17/03/14","03:50",0.0,7.6,80.4,1006.7,338.1,2.6,4.5,335.7,0.00,4.5,8.5,"03:42:56",1
"17/03/14","04:00",0.0,7.5,80.3,1006.4,323.6,2.2,4.1,314.6,0.00,4.4,8.5,"03:59:12",1
"17/03/14","04:10",0.0,7.6,80.0,1006.7,326.2,2.8,5.1,330.5,0.00,4.4,8.5,"04:05:52",1
"17/03/14","04:20",0.0,7.6,79.7,1006.4,321.5,3.1,5.5,325.1,0.00,4.4,8.5,"04:11:52",1
"17/03/14","04:30",0.0,7.5,79.4,1006.2,326.2,3.0,5.0,329.6,0.00,4.2,8.3,"04:23:44",1
"17/03/14","04:40",0.0,7.5,79.3,1006.7,324.9,2.7,6.5,322.8,0.00,4.2,8.2,"04:36:42",1
"17/03/14","04:50",0.0,7.5,79.2,1006.2,319.9,3.7,5.5,318.7,0.00,4.2,8.4,"04:47:12",1
"17/03/14","05:00",0.0,7.5,78.7,1006.7,328.7,3.7,5.9,343.2,0.00,4.1,8.3,"04:56:24",1
"17/03/14","05:10",0.0,7.5,78.5,1006.4,333.4,3.1,5.8,340.5,0.00,4.0,8.2,"05:02:16",1
"17/03/14","05:20",0.0,7.5,78.7,1006.2,330.3,3.4,7.3,341.2,0.00,4.1,8.4,"05:11:36",1
"17/03/14","05:30",0.0,7.4,79.1,1006.4,322.9,2.5,3.5,337.6,0.00,4.1,8.3,"05:20:56",1
"17/03/14","05:40",0.0,7.3,79.0,1006.7,308.5,2.1,3.6,337.3,0.00,3.9,8.2,"05:37:36",1
"17/03/14","05:50",0.0,7.3,78.8,1006.7,313.8,2.5,3.7,318.9,0.00,3.9,8.2,"05:48:56",1
"17/03/14","06:00",0.0,7.4,78.0,1006.2,319.2,3.2,5.1,319.7,0.00,3.9,8.4,"05:51:44",1
"17/03/14","06:10",0.0,7.3,77.7,1006.7,322.0,2.8,4.1,337.8,0.00,3.7,8.4,"06:06:48",1
"17/03/14","06:20",0.0,7.3,77.9,1006.7,313.2,2.5,3.4,322.7,0.00,3.7,8.2,"06:16:08",1
"17/03/14","06:30",0.0,7.3,77.7,1006.4,327.3,2.7,4.8,343.3,0.00,3.7,8.2,"06:29:04",1
"17/03/14","06:40",0.0,7.4,77.6,1006.7,321.5,3.4,5.4,310.8,0.00,3.8,8.0,"06:33:36",1
"17/03/14","06:50",0.0,7.4,77.4,1006.4,315.3,2.7,4.4,335.5,0.00,3.8,8.2,"06:46:16",1
"17/03/14","07:00",0.0,7.3,78.2,1006.7,315.1,2.8,4.7,335.2,0.00,3.8,8.1,"06:50:32",1
"17/03/14","07:10",0.0,7.2,79.6,1006.4,297.9,2.0,2.6,329.5,0.00,4.0,8.2,"07:08:16",1
"17/03/14","07:20",0.0,7.2,80.3,1006.7,295.4,2.2,3.1,304.8,0.00,4.1,8.2,"07:11:12",1
"17/03/14","07:30",0.0,7.3,80.3,1006.7,289.0,2.0,2.9,307.0,0.01,4.2,8.1,"07:29:52",1
"17/03/14","07:40",0.0,7.4,79.7,1006.7,298.9,2.1,2.9,315.2,0.02,4.2,8.3,"07:32:48",1
"17/03/14","07:50",0.0,7.6,79.4,1006.7,321.9,2.2,2.9,310.2,0.04,4.3,8.2,"07:44:48",1
"17/03/14","08:00",0.0,7.9,78.9,1006.9,291.6,1.8,3.3,315.3,0.07,4.5,8.1,"07:59:28",1
"17/03/14","08:10",0.0,8.0,76.2,1006.9,335.5,1.8,3.2,339.7,0.07,4.1,8.3,"08:05:20",1
"17/03/14","08:20",0.0,8.2,75.1,1006.7,326.3,2.2,3.6,329.0,0.08,4.1,8.2,"08:19:12",1
"17/03/14","08:30",0.0,8.4,73.5,1007.1,322.7,2.1,3.9,340.5,0.10,4.0,8.4,"08:26:08",1
"17/03/14","08:40",0.0,8.5,70.8,1006.7,291.4,2.2,5.4,309.6,0.10,3.5,8.3,"08:30:02",1
"17/03/14","08:50",0.0,8.7,69.3,1006.9,332.6,4.2,8.2,329.8,0.15,3.4,8.3,"08:45:32",1
"17/03/14","09:00",0.0,8.9,68.6,1007.1,329.8,3.4,6.7,338.2,0.17,3.5,8.4,"08:55:36",1
"17/03/14","09:10",0.0,8.9,66.3,1007.1,325.0,4.0,6.5,325.8,0.18,3.0,8.6,"09:08:00",1
"17/03/14","09:20",0.0,8.8,65.9,1006.9,341.8,3.0,6.3,333.5,0.12,2.8,8.7,"09:18:08",1
"17/03/14","09:30",0.0,8.7,66.0,1007.1,322.7,3.7,7.1,338.6,0.12,2.7,8.6,"09:28:56",1
"17/03/14","09:40",0.0,9.0,65.6,1006.9,317.1,3.2,5.7,340.3,0.17,2.9,8.7,"09:38:48",1
"17/03/14","09:50",0.0,9.3,63.3,1007.1,328.2,4.2,8.2,343.7,0.25,2.7,8.8,"09:47:44",1
"17/03/14","10:00",0.0,9.3,63.7,1006.7,340.0,3.6,7.7,342.7,0.22,2.8,9.0,"09:50:48",1
"17/03/14","10:10",0.2,9.3,61.1,1006.9,327.0,5.1,11.9,339.8,0.23,2.2,8.9,"10:04:56",1
"17/03/14","10:20",0.0,9.4,59.8,1006.4,337.0,4.0,7.1,333.9,0.20,2.0,8.8,"10:12:40",1
"17/03/14","10:30",0.0,9.4,59.9,1006.4,332.6,4.0,10.1,337.3,0.17,2.1,8.9,"10:21:20",1
"17/03/14","10:40",0.0,9.7,59.1,1006.4,340.8,3.6,9.4,341.9,0.24,2.1,9.1,"10:39:04",1
"17/03/14","10:50",0.0,9.9,56.3,1006.7,336.5,4.4,7.0,318.1,0.26,1.7,9.1,"10:43:20",1
"17/03/14","11:00",0.0,9.7,56.8,1006.4,342.3,4.1,8.2,355.8,0.25,1.6,9.3,"10:50:48",1
"17/03/14","11:10",0.0,9.7,56.4,1006.2,341.4,3.9,7.1,353.9,0.19,1.5,9.5,"11:02:56",1
"17/03/14","11:20",0.0,10.4,54.6,1006.0,335.5,4.5,7.5,5.7,0.34,1.7,9.2,"11:13:12",1
"17/03/14","11:30",0.0,11.2,52.6,1006.4,327.1,4.9,9.4,337.0,0.57,1.9,9.5,"11:29:12",1
"17/03/14","11:40",0.0,11.2,51.1,1006.2,325.5,4.6,8.7,339.3,0.49,1.5,9.7,"11:35:04",1
"17/03/14","11:50",0.0,11.8,49.4,1005.7,343.5,4.1,9.7,330.9,0.61,1.6,10.0,"11:40:32",1
"17/03/14","12:00",0.0,11.9,48.2,1005.7,348.6,4.5,9.3,337.9,0.58,1.3,10.2,"11:51:12",1
"17/03/14","12:10",0.0,11.5,48.4,1005.7,345.0,4.0,9.1,336.2,0.45,1.0,10.3,"12:03:44",1
"17/03/14","12:20",0.0,10.7,52.7,1005.5,338.5,4.0,7.3,330.0,0.26,1.5,10.4,"12:13:36",1
"17/03/14","12:30",0.0,10.3,53.8,1005.5,345.6,4.4,8.5,345.3,0.18,1.4,10.4,"12:24:32",1
"17/03/14","12:40",0.0,10.9,53.0,1005.2,327.6,4.4,7.3,334.3,0.28,1.7,10.6,"12:38:40",1
"17/03/14","12:50",0.0,10.3,54.3,1005.0,337.4,5.2,11.4,331.2,0.23,1.5,10.6,"12:41:20",1
"17/03/14","13:00",0.0,11.4,50.5,1004.8,339.3,3.4,8.1,310.6,0.48,1.5,10.6,"12:50:02",1
"17/03/14","13:10",0.0,10.8,50.3,1005.0,337.8,6.0,12.0,328.1,0.30,0.9,10.6,"13:04:24",1
"17/03/14","13:20",0.0,10.7,50.1,1005.2,333.5,4.9,9.6,339.4,0.19,0.8,10.6,"13:14:32",1
"17/03/14","13:30",0.0,10.2,51.3,1004.8,345.8,3.7,7.4,337.6,0.13,0.6,10.7,"13:26:40",1
"17/03/14","13:40",0.0,9.9,53.5,1004.5,342.6,4.6,10.1,328.7,0.06,0.9,10.6,"13:38:56",1
"17/03/14","13:50",0.0,9.7,54.6,1004.8,352.3,3.7,5.9,343.5,0.06,1.0,10.6,"13:44:40",1
"17/03/14","14:00",0.0,9.5,55.5,1004.3,345.7,3.7,7.2,348.8,0.08,1.1,10.5,"13:54:16",1
"17/03/14","14:10",0.0,9.3,56.8,1004.3,332.8,4.7,8.3,323.6,0.04,1.2,10.3,"14:09:52",1
"17/03/14","14:20",0.0,9.4,57.9,1004.5,323.9,3.7,7.5,333.4,0.06,1.6,10.3,"14:10:16",1
"17/03/14","14:30",0.0,9.4,57.4,1004.5,319.5,4.4,6.8,340.0,0.08,1.5,10.2,"14:20:24",1
"17/03/14","14:40",0.0,10.9,54.0,1004.5,342.1,3.0,6.2,351.7,0.34,2.0,10.3,"14:32:40",1
"17/03/14","14:50",0.0,10.1,55.1,1004.5,317.1,2.8,6.4,344.2,0.11,1.5,10.1,"14:43:04",1
"17/03/14","15:00",0.0,10.1,54.8,1004.8,339.2,2.6,4.7,331.9,0.10,1.5,10.2,"14:59:20",1
"17/03/14","15:10",0.0,10.0,53.8,1004.3,329.0,2.8,5.6,339.7,0.06,1.1,10.2,"15:05:32",1
"17/03/14","15:20",0.0,9.7,53.2,1004.8,314.5,5.0,9.6,327.9,0.06,0.7,10.1,"15:11:44",1
"17/03/14","15:30",0.0,9.5,54.6,1004.5,333.5,5.0,8.9,332.7,0.04,0.9,9.8,"15:25:04",1
"17/03/14","15:40",0.0,9.5,55.4,1004.5,309.4,3.9,6.4,320.1,0.07,1.1,10.2,"15:30:48",1
"17/03/14","15:50",0.0,10.4,55.2,1004.5,310.3,3.2,6.3,342.3,0.18,1.8,10.1,"15:47:12",1
"17/03/14","16:00",0.0,9.8,52.3,1004.5,325.6,4.5,7.9,316.6,0.04,0.5,10.0,"15:53:28",1
"17/03/14","16:10",0.0,9.6,53.3,1004.8,332.9,4.2,7.1,318.2,0.06,0.6,10.0,"16:09:52",1
"17/03/14","16:20",0.0,9.3,52.6,1004.3,325.7,4.1,6.6,333.7,0.04,0.2,10.0,"16:11:36",1
"17/03/14","16:30",0.0,9.4,52.9,1004.3,323.5,3.4,6.5,339.8,0.04,0.3,9.8,"16:20:16",1
"17/03/14","16:40",0.0,10.3,50.4,1004.3,320.7,4.2,7.8,325.8,0.16,0.5,9.9,"16:31:12",1
"17/03/14","16:50",0.0,10.7,48.6,1004.3,325.4,4.2,9.8,325.9,0.17,0.4,9.9,"16:42:16",1
"17/03/14","17:00",0.0,10.0,48.5,1004.3,340.0,4.1,8.7,332.1,0.05,-0.3,9.9,"16:56:32",1
"17/03/14","17:10",0.0,9.5,51.0,1004.3,337.5,3.6,6.2,340.4,0.01,-0.1,9.8,"17:05:12",1
"17/03/14","17:20",0.0,9.3,51.4,1004.5,321.2,4.9,8.6,331.6,0.00,-0.2,9.6,"17:19:28",1
"17/03/14","17:30",0.0,9.1,52.1,1004.8,317.4,6.8,11.3,335.6,0.00,-0.2,9.7,"17:28:56",1
"17/03/14","17:40",0.0,8.8,52.6,1004.8,331.5,5.5,10.4,327.9,0.01,-0.3,9.7,"17:30:32",1
"17/03/14","17:50",0.0,8.5,53.8,1004.5,319.5,4.6,12.8,336.8,0.00,-0.3,9.5,"17:42:48",1
"17/03/14","18:00",0.0,8.3,54.4,1004.8,315.2,4.9,8.8,337.1,0.00,-0.3,9.4,"17:56:08",1
"17/03/14","18:10",0.0,8.0,55.8,1004.8,309.8,3.2,7.0,321.1,0.00,-0.2,9.3,"18:07:52",1
"17/03/14","18:20",0.0,7.7,58.2,1004.8,294.8,2.1,4.1,304.2,0.00,0.1,9.2,"18:10:02",1
"17/03/14","18:30",0.0,7.6,60.6,1004.8,289.1,2.7,5.2,297.2,0.00,0.5,9.1,"18:28:16",1
"17/03/14","18:40",0.0,7.5,62.2,1004.8,269.9,2.8,5.0,306.9,0.00,0.8,9.1,"18:31:44",1
"17/03/14","18:50",0.0,7.5,63.2,1005.2,285.5,2.6,4.2,270.7,0.00,1.0,9.1,"18:40:40",1
"17/03/14","19:00",0.0,7.4,64.1,1005.5,320.3,3.9,8.8,319.1,0.00,1.1,9.2,"18:55:52",1
"17/03/14","19:10",0.0,7.2,65.2,1005.5,331.1,2.5,4.9,321.2,0.00,1.2,8.9,"19:00:02",1
"17/03/14","19:20",0.0,6.9,66.3,1005.2,324.1,3.5,5.6,327.5,0.00,1.1,8.7,"19:18:16",1
"17/03/14","19:30",0.0,6.6,67.3,1005.5,293.6,2.5,4.4,326.5,0.00,1.0,8.8,"19:22:16",1
"17/03/14","19:40",0.0,6.3,69.0,1005.7,324.3,1.7,2.7,336.0,0.00,1.1,8.4,"19:33:04",1
"17/03/14","19:50",0.0,5.8,70.1,1005.5,271.6,1.7,3.3,246.4,0.00,0.8,8.6,"19:40:02",1
"17/03/14","20:00",0.0,6.0,72.0,1005.2,276.8,2.5,4.8,327.1,0.00,1.4,8.5,"19:57:44",1
"17/03/14","20:10",0.0,6.2,73.8,1005.5,281.0,3.6,5.5,318.4,0.00,1.9,8.7,"20:05:04",1
"17/03/14","20:20",0.0,5.9,76.9,1006.2,309.3,3.2,7.8,319.6,0.00,2.2,8.4,"20:18:18",1
"17/03/14","20:30",0.0,5.6,77.3,1005.7,329.9,2.7,6.8,320.3,0.00,2.0,8.4,"20:29:32",1
"17/03/14","20:40",0.0,5.4,77.2,1005.5,280.6,1.5,4.1,318.8,0.00,1.8,8.4,"20:30:34",1
"17/03/14","20:50",0.0,4.9,78.3,1006.0,282.2,0.5,1.4,272.2,0.00,1.5,8.2,"20:47:58",1
"17/03/14","21:00",0.0,4.5,79.9,1006.0,259.9,0.7,1.4,299.5,0.00,1.4,8.2,"20:55:00",1
"17/03/14","21:10",0.0,4.3,81.7,1006.2,298.0,1.7,2.1,318.4,0.00,1.5,8.1,"21:05:28",1
"17/03/14","21:20",0.0,4.0,84.0,1006.2,282.9,1.7,2.2,325.5,0.00,1.6,8.0,"21:19:02",1
"17/03/14","21:30",0.0,3.9,86.0,1005.7,317.6,2.5,2.5,333.2,0.00,1.8,7.9,"21:23:14",1
"17/03/14","21:40",0.0,4.1,87.1,1006.0,286.2,1.6,1.9,274.2,0.00,2.2,8.0,"21:35:22",1
"17/03/14","21:50",0.0,4.6,87.2,1006.0,312.1,2.6,4.1,307.3,0.00,2.7,7.8,"21:49:54",1
"17/03/14","22:00",0.0,5.1,85.2,1006.4,308.2,3.6,6.5,315.6,0.00,2.9,7.8,"21:59:16",1
"17/03/14","22:10",0.0,5.3,83.7,1006.0,320.7,1.7,4.9,304.2,0.00,2.8,7.7,"22:01:10",1
"17/03/14","22:20",0.0,5.1,83.4,1006.2,309.0,1.1,3.4,323.1,0.00,2.6,7.6,"22:17:58",1
"17/03/14","22:30",0.0,5.0,84.0,1006.2,313.6,2.1,3.3,318.9,0.00,2.6,7.8,"22:26:30",1
"17/03/14","22:40",0.0,4.9,84.7,1006.2,301.9,1.8,2.7,319.1,0.00,2.6,7.4,"22:32:56",1
"17/03/14","22:50",0.0,4.5,85.8,1006.0,272.3,1.5,2.4,292.0,0.00,2.4,7.7,"22:44:48",1
"17/03/14","23:00",0.0,4.1,87.1,1006.0,303.8,1.6,3.2,340.4,0.00,2.2,7.6,"22:58:40",1
"17/03/14","23:10",0.0,3.7,88.4,1005.7,292.2,1.7,2.5,317.8,0.00,2.0,7.5,"23:00:48",1
"17/03/14","23:20",0.0,3.5,89.7,1005.5,308.1,1.7,2.6,321.5,0.00,2.0,7.3,"23:16:12",1
"17/03/14","23:30",0.0,3.4,90.7,1005.0,300.3,1.1,1.9,314.8,0.00,2.1,7.5,"23:20:24",1
"17/03/14","23:40",0.0,3.1,91.3,1005.2,312.5,2.2,2.5,342.4,0.00,1.9,7.3,"23:36:26",1
"17/03/14","23:50",0.0,3.1,92.2,1005.0,305.3,1.5,2.1,331.9,0.00,2.0,7.3,"23:43:24",1
"17/03/14","24:00",0.0,3.3,92.9,1004.8,304.6,1.8,3.1,309.7,0.00,2.3,7.2,"23:58:34",1
